Location: *
(43.6428°N, 11.5461°E)
Time: 18:24:21
(UTC+00:00)

Cosmos 1461 - Pass Details

Date: 21 October 2019
Orbit: 524 x 644 km, 65.0° (Epoch: 12 November)

Event Time Altitude Azimuth Distance (km) Brightness Sun altitude
Rises 18:15:31 0° 317° (NW) 2,721 7.1 -21.3°
Reaches altitude 10° 18:17:50 10° 308° (NW) 1,841 6.3 -21.7°
Maximum altitude 18:21:34 34° 244° (WSW) 954 4.5 -22.4°
Enters shadow 18:24:56 13° 182° (S) 1,727 5.3 -23.0°
